Regional Weather Roundup
Issued by NWS Boston, MA

Current Version | Previous Version | Text Only | Print | Product List | Glossary Off
Versions: 1 2 3 4 5 6 7 8 9 10 11 12 13 14 15 16 17 18 19 20 21 22 23 24 25 26 27 28 29 30 31 32 33 34 35 36 37 38 39 40 41 42 43 44 45 46 47 48 49 50
601 ASUS41 KBOX 241510 RWRBOX REGIONAL WEATHER ROUNDUP NATIONAL WEATHER SERVICE TAUNTON MA 1000 AM EST FRI NOV 24 2017 NOTE: "FAIR" INDICATES FEW OR NO CLOUDS BELOW 12,000 FEET WITH NO SIGNIFICANT WEATHER AND/OR OBSTRUCTIONS TO VISIBILITY. MAZALL-241600- EASTERN MASSACHUSETTS CITY SKY/WX TMP DP RH WIND PRES REMARKS BOSTON MOSUNNY 42 25 50 SW6 30.02F BEVERLY SUNNY 41 26 55 SW9 30.01S LAWRENCE SUNNY 42 26 53 SW7 30.03S BEDFORD SUNNY 39 24 55 W7 30.01S BLUE HILL NOT AVBL NORWOOD SUNNY 43 25 49 SW7 30.03S MARSHFIELD SUNNY 43 25 49 SW8 30.02F PLYMOUTH SUNNY 43 26 51 W8 30.03S TAUNTON SUNNY 42 25 50 VRB6 30.03S NEW BEDFORD SUNNY 42 27 55 W7 30.03S $$ MAZALL-241600- CAPE COD AND THE ISLANDS CITY SKY/WX TMP DP RH WIND PRES REMARKS FALMOUTH SUNNY 43 27 52 W10 30.04S HYANNIS SUNNY 45 28 51 W10 30.02S CHATHAM SUNNY 45 29 53 VRB7 30.03F PROVINCETOWN SUNNY 44 29 55 W13 30.03R NANTUCKET SUNNY 46 30 53 W7 30.04S MARTHAS VNYRD SUNNY 46 28 49 W6 30.04S $$ MAZALL-241600- CENTRAL AND WESTERN MASSACHUSETTS CITY SKY/WX TMP DP RH WIND PRES REMARKS WORCESTER SUNNY 37 20 50 W10 29.99R WCI 30 FITCHBURG SUNNY 45 27 49 W7 30.01S ORANGE SUNNY 36 28 73 CALM 30.01S SPRINGFIELD MOSUNNY 37 23 56 CALM 30.01F WESTFIELD SUNNY 39 23 52 S3 30.01F NORTH ADAMS SUNNY 36 24 62 CALM 30.00S PITTSFIELD SUNNY 38 22 52 W6 29.97S $$ RIZALL-241600- RHODE ISLAND CITY SKY/WX TMP DP RH WIND PRES REMARKS PROVIDENCE MOSUNNY 43 25 49 W6 30.05S NEWPORT SUNNY 43 24 47 VRB5 30.04R BLOCK ISLAND SUNNY 46 29 51 NW6 30.05S SMITHFIELD SUNNY 40 24 53 CALM 30.02S WESTERLY SUNNY 44 25 47 W3 30.05S $$ CTZALL-241600- CONNECTICUT CITY SKY/WX TMP DP RH WIND PRES REMARKS BRADLEY INTL SUNNY 38 25 59 SE5 30.03F HARTFORD SUNNY 39 25 57 S5 30.04F BRIDGEPORT SUNNY 40 25 55 CALM 30.05S DANBURY SUNNY 41 25 53 SW3 30.04S GROTON SUNNY 43 28 55 SW5 30.04F NEW HAVEN SUNNY 39 24 55 VRB3 30.04F CHESTER FAIR 45 21 39 SW5 30.03S MERIDEN SUNNY 37 24 59 CALM 30.04F WILLIMANTIC SUNNY 37 24 59 CALM 30.04F OXFORD SUNNY 38 24 57 CALM 30.02F $$ MEZ002-015-021-024-NHZ003-005-008-011-012-014-VTZ005-008-241600- NORTHERN NEW ENGLAND CITY SKY/WX TMP DP RH WIND PRES REMARKS PORTLAND ME MOSUNNY 39 25 57 SW9 29.99R BANGOR ME MOSUNNY 39 24 55 W12 29.95R WCI 32 CONCORD NH CLOUDY 37 26 64 W5 30.00R MANCHESTER NH MOSUNNY 39 25 57 W5 30.00R NASHUA NH SUNNY 41 26 55 CALM 30.02R PORTSMOUTH NH MOSUNNY 40 25 55 W9 29.99S JAFFREY NH SUNNY 36 25 64 SW8 29.99R WCI 30 KEENE NH CLOUDY 32 25 75 CALM 30.01S BURLINGTON VT CLOUDY 38 27 64 S13 29.93F WCI 30 MT. WASHINGTON FOG 16 16 100 W44 N/A VSB 0 WCI -8 $$ NYZ052-076-241600- EASTERN NEW YORK CITY SKY/WX TMP DP RH WIND PRES REMARKS ALBANY MOSUNNY 38 23 55 S7 30.02S NEW YORK CITY SUNNY 44 24 45 CALM 30.05S $$ ANZALL-241600- MARINE OBSERVATIONS STATION/POSITION TIME TEMP WIND PRES VSBY WAVE AIR SEA DIR/SP/G HT/PER (UTC) (F) (DEG/KT/KT) (MB) (MI) (FT/S) BOSTON BUOY 1350 40 50 250/ 14/ 16 1015.6 2/11 BUZZARDS BAY 1400 44 310/ 6/ 7 1017.7F NANTUCKET SOUND 1450 44 48 260/ 8/ 10 1017.1F 1/10 MASS BAY-STELLWA 1404 42 49 260/ 14/ 17 1015.6S 4/11 ISLE OF SHOALS 1400 39 260/ 18/ 19 1015.5R S OF BLOCK IS NOT AVBL $$ ......................KEY......................... SKY/WX - SKY CONDITION/PRESENT WEATHER TMP - TEMPERATURE IN FAHRENHEIT DWPT - DEWPOINT IN FAHRENHEIT RH - RELATIVE HUMIDITY IN PERCENT WIND - DIRECTION AND SPEED IN MPH PRES - MEAN SEA LEVEL PRESSURE IN INCHES OF HG WCI - WIND CHILL INDEX VSB - VISIBILITY IN MILES HX - HEAT INDEX TC - TEMPERATURE IN CELSIUS VRB - VARIABLE WIND DIRECTION N/A - NOT AVAILABLE

USA.gov is the U.S. government's official web portal to all federal, state and local government web resources and services.